Bemidji, MN

6:21 AM CDT on April 20, 2018 (GMT -0500)
Bemidji-Beltrami County

Weather History for KBJI - January, 2014

Change the Weather History Date:

Monday, January 13, 2014

  Actual Average Record
Temperature  
Mean Temperature 16 °F -  
Max Temperature 26 °F 15 °F 40 °F (1980)
Min Temperature 7 °F -5 °F -35 °F (1965)
Degree Days  
Heating Degree Days 48    
Moisture  
Dew Point 13 °F    
Average Humidity 81    
Maximum Humidity 88    
Minimum Humidity 70    
Precipitation  
Precipitation 0.00 in - - ()
Sea Level Pressure  
Sea Level Pressure 29.54 in    
Wind  
Wind Speed 11 mph (WNW)    
Max Wind Speed 18 mph    
Max Gust Speed 24 mph    
Visibility 8 miles    
Events Snow    
Averages and records for this station are not official NWS values.
T = Trace of Precipitation, MM = Missing Value Source: NWS Daily Summary

Daily Weather History Graph

Daily Weather History Graph

Search for Another Location

Airport or City:

Astronomy

Jan. 13, 2014 Rise Set
Actual Time 8:04 AM CST 4:53 PM CST
Civil Twilight 7:29 AM CST 5:28 PM CST
Nautical Twilight 6:50 AM CST 6:06 PM CST
Astronomical Twilight 6:13 AM CST 6:43 PM CST
Moon 3:10 PM CST (1/13) 5:52 AM CST (1/13)
Length of Visible Light 9h 58m
Length of Day
8h 49m
Waxing Gibbous, 95% of the Moon is Illuminated
Jan 13
Waxing Gibbous
Jan 15
Full
Jan 23
Last Quarter
Jan 30
New
Feb 6
First Quarter

Hourly Weather History & Observations

Time (CST) Temp. Windchill Dew Point Humidity Pressure Visibility Wind Dir Wind Speed Gust Speed Precip Events Conditions
12:11 AM 26.6 °F 13.4 °F 22.3 °F 84% 29.48 in 7.0 mi WNW 18.4 mph 24.2 mph N/A   Overcast
12:30 AM 26.1 °F 12.7 °F 21.9 °F 84% 29.48 in 10.0 mi WNW 18.4 mph - N/A   Overcast
12:50 AM 25.7 °F 13.1 °F 21.6 °F 84% 29.49 in 10.0 mi WNW 16.1 mph 20.7 mph N/A   Overcast
1:11 AM 25.5 °F 12.9 °F 21.6 °F 85% 29.49 in 7.0 mi NW 16.1 mph 24.2 mph N/A   Overcast
1:30 AM 25.3 °F 13.6 °F 21.0 °F 84% 29.49 in 7.0 mi WNW 13.8 mph - N/A   Overcast
1:50 AM 25.2 °F 12.4 °F 20.7 °F 83% 29.49 in 7.0 mi NW 16.1 mph - N/A   Overcast
2:11 AM 23.4 °F 12.2 °F 19.2 °F 84% 29.50 in 7.0 mi WNW 11.5 mph - N/A   Scattered Clouds
2:30 AM 22.6 °F 10.1 °F 18.3 °F 83% 29.51 in 10.0 mi WNW 13.8 mph 18.4 mph N/A   Clear
2:50 AM 22.6 °F 9.6 °F 18.9 °F 85% 29.52 in 10.0 mi WNW 15.0 mph - N/A   Mostly Cloudy
3:10 AM 22.8 °F 13.6 °F 18.7 °F 84% 29.52 in 10.0 mi West 8.1 mph - N/A   Overcast
3:30 AM 22.8 °F 13.6 °F 18.5 °F 83% 29.52 in 10.0 mi West 8.1 mph - N/A   Overcast
3:50 AM 22.8 °F 13.6 °F 18.5 °F 83% 29.52 in 7.0 mi West 8.1 mph - N/A   Overcast
4:10 AM 22.6 °F 13.4 °F 18.5 °F 84% 29.53 in 10.0 mi West 8.1 mph - N/A   Overcast
4:30 AM 22.5 °F 13.2 °F 18.5 °F 85% 29.53 in 7.0 mi West 8.1 mph - N/A   Overcast
4:50 AM 22.6 °F 13.4 °F 18.3 °F 83% 29.53 in 10.0 mi West 8.1 mph - N/A   Overcast
5:10 AM 23.0 °F 11.1 °F 18.1 °F 82% 29.53 in 10.0 mi West 12.7 mph - N/A   Overcast
5:30 AM 22.8 °F 10.9 °F 18.0 °F 82% 29.53 in 7.0 mi West 12.7 mph 16.1 mph N/A   Overcast
5:50 AM 22.6 °F 10.7 °F 17.6 °F 81% 29.53 in 7.0 mi West 12.7 mph - N/A   Overcast
6:10 AM 22.3 °F 12.2 °F 17.6 °F 82% 29.53 in 7.0 mi West 9.2 mph - N/A   Overcast
6:30 AM 22.1 °F 10.0 °F 17.4 °F 82% 29.53 in 10.0 mi West 12.7 mph - N/A   Overcast
6:50 AM 21.9 °F 11.0 °F 17.2 °F 82% 29.53 in 10.0 mi West 10.4 mph - N/A Snow Light Snow
7:10 AM 21.7 °F 10.2 °F 16.7 °F 81% 29.54 in 10.0 mi West 11.5 mph - N/A Snow Light Snow
7:30 AM 21.2 °F 8.3 °F 16.5 °F 82% 29.54 in 7.0 mi WNW 13.8 mph 18.4 mph N/A Snow Light Snow
7:50 AM 21.0 °F 8.1 °F 16.5 °F 83% 29.54 in 1.0 mi West 13.8 mph - N/A Snow Light Snow
8:10 AM 20.3 °F 9.0 °F 16.2 °F 84% 29.54 in 7.0 mi West 10.4 mph - N/A Snow Light Snow
8:30 AM 20.1 °F 9.5 °F 16.0 °F 84% 29.54 in 7.0 mi West 9.2 mph - N/A Snow Light Snow
8:50 AM 19.9 °F 9.3 °F 16.2 °F 85% 29.55 in 5.0 mi West 9.2 mph - N/A Snow Light Snow
9:10 AM 19.9 °F 10.1 °F 16.2 °F 85% 29.55 in 4.0 mi West 8.1 mph - N/A Snow Light Snow
9:30 AM 19.9 °F 8.6 °F 16.2 °F 85% 29.56 in 2.5 mi WNW 10.4 mph - N/A Snow Light Snow
9:51 AM 19.9 °F 9.3 °F 16.0 °F 85% 29.56 in 2.5 mi WNW 9.2 mph - N/A Snow Light Snow
10:10 AM 19.4 °F 6.0 °F 15.4 °F 85% 29.57 in 3.0 mi WNW 13.8 mph - N/A Snow Light Snow
10:30 AM 18.5 °F 6.8 °F 13.8 °F 82% 29.57 in 5.0 mi WNW 10.4 mph - N/A Snow Light Snow
10:50 AM 18.5 °F 5.5 °F 12.7 °F 78% 29.58 in 7.0 mi NW 12.7 mph - N/A Snow Light Snow
11:10 AM 18.3 °F 5.2 °F 12.0 °F 76% 29.58 in 7.0 mi NW 12.7 mph - N/A Snow Light Snow
11:30 AM 18.1 °F 3.4 °F 11.7 °F 76% 29.58 in 10.0 mi WNW 16.1 mph - N/A Snow Light Snow
11:51 AM 18.0 °F 4.2 °F 11.3 °F 75% 29.58 in 10.0 mi NW 13.8 mph - N/A Snow Light Snow
12:10 PM 17.6 °F 3.7 °F 11.3 °F 76% 29.57 in 10.0 mi NW 13.8 mph - N/A Snow Light Snow
12:30 PM 17.6 °F 5.0 °F 11.5 °F 77% 29.57 in 4.0 mi WNW 11.5 mph - N/A Snow Light Snow
12:51 PM 18.5 °F 7.5 °F 11.1 °F 73% 29.56 in 10.0 mi WNW 9.2 mph - N/A   Overcast
1:10 PM 18.1 °F 6.3 °F 10.9 °F 73% 29.56 in 10.0 mi NW 10.4 mph - N/A Snow Light Snow
1:30 PM 18.5 °F 3.3 °F 10.4 °F 71% 29.56 in 10.0 mi West 17.3 mph - N/A Snow Light Snow
1:50 PM 18.5 °F 5.5 °F 10.8 °F 72% 29.55 in 10.0 mi WNW 12.7 mph 18.4 mph N/A Snow Light Snow
2:10 PM 18.3 °F 4.1 °F 10.2 °F 71% 29.55 in 10.0 mi West 15.0 mph - N/A Snow Light Snow
2:30 PM 18.5 °F 6.8 °F 10.2 °F 70% 29.56 in 10.0 mi West 10.4 mph - N/A   Mostly Cloudy
2:50 PM 17.6 °F 5.7 °F 9.5 °F 71% 29.55 in 10.0 mi WNW 10.4 mph - N/A   Mostly Cloudy
3:10 PM 17.2 °F 6.0 °F 9.3 °F 71% 29.55 in 10.0 mi WNW 9.2 mph - N/A   Scattered Clouds
3:30 PM 17.6 °F 9.3 °F 9.3 °F 70% 29.55 in 10.0 mi West 5.8 mph - N/A   Clear
3:50 PM 17.1 °F 11.7 °F 9.1 °F 71% 29.55 in 10.0 mi WNW 3.5 mph - N/A   Clear
4:10 PM 16.3 °F 10.8 °F 8.8 °F 72% 29.56 in 7.0 mi WNW 3.5 mph - N/A   Clear
4:30 PM 14.0 °F 6.5 °F 7.5 °F 75% 29.56 in 10.0 mi NW 4.6 mph - N/A   Clear
4:50 PM 12.2 °F 6.1 °F 7.2 °F 80% 29.55 in 10.0 mi West 3.5 mph - N/A   Clear
5:10 PM 13.1 °F 7.1 °F 7.5 °F 78% 29.56 in 10.0 mi West 3.5 mph - N/A   Clear
5:30 PM 9.9 °F - 5.2 °F 81% 29.56 in 10.0 mi Calm Calm - N/A   Clear
5:50 PM 7.7 °F - 4.6 °F 87% 29.56 in 10.0 mi Calm Calm - N/A   Clear
6:11 PM 8.8 °F - 5.9 °F 88% 29.56 in 10.0 mi Calm Calm - N/A   Clear
6:30 PM 8.1 °F - 5.2 °F 88% 29.56 in 10.0 mi Calm Calm - N/A   Mostly Cloudy
6:50 PM 7.0 °F - 4.1 °F 88% 29.56 in 10.0 mi Calm Calm - N/A   Overcast
7:10 PM 8.1 °F - 5.2 °F 88% 29.56 in 10.0 mi Calm Calm - N/A   Overcast
7:30 PM 7.5 °F - 4.3 °F 87% 29.56 in 10.0 mi Calm Calm - N/A   Overcast
7:50 PM 8.4 °F - 5.2 °F 87% 29.55 in 10.0 mi Calm Calm - N/A   Overcast
8:10 PM 8.6 °F - 5.4 °F 87% 29.54 in 10.0 mi Calm Calm - N/A   Overcast
8:30 PM 9.5 °F - 6.3 °F 87% 29.55 in 10.0 mi Calm Calm - N/A   Overcast
8:51 PM 10.0 °F - 6.6 °F 86% 29.54 in 10.0 mi Calm Calm - N/A   Overcast
9:10 PM 10.0 °F - 6.6 °F 86% 29.54 in 10.0 mi Calm Calm - N/A   Overcast
9:30 PM 10.2 °F 3.8 °F 6.8 °F 86% 29.54 in 10.0 mi ENE 3.5 mph - N/A   Overcast
9:50 PM 11.1 °F 3.1 °F 7.7 °F 86% 29.53 in 10.0 mi ENE 4.6 mph - N/A   Overcast
10:10 PM 11.8 °F 3.9 °F 7.7 °F 83% 29.54 in 10.0 mi ENE 4.6 mph - N/A   Overcast
10:30 PM 12.0 °F - 8.2 °F 85% 29.55 in 10.0 mi Calm Calm - N/A   Overcast
10:50 PM 12.6 °F - 8.4 °F 83% 29.55 in 10.0 mi Calm Calm - N/A   Overcast
11:10 PM 12.2 °F - 8.4 °F 85% 29.56 in 10.0 mi Calm Calm - N/A   Overcast
11:30 PM 12.6 °F - 8.2 °F 83% 29.57 in 7.0 mi Calm Calm - N/A   Overcast
11:50 PM 12.7 °F 6.7 °F 7.7 °F 80% 29.57 in 7.0 mi NNE 3.5 mph - N/A Snow Light Snow